User: anonymous   Login
Location: Fort Wayne
(41.1310°N, 85.1290°W)
Time: 09:12:25
(UTC-04:00)
Language:

Cosmos 2082 - Orbit

View from above orbital plane
View from above orbital plane
View from above satellite
View from above satellite

Ground track
Ground track

The orbit data is extracted from the following two-line orbital elements,

1 20624U 90046A   15089.51731474  .00000433  00000-0  25165-3 0  9990
2 20624 071.0385 109.1564 0015458 189.7686 170.3138 14.14141694282723
Epoch (UTC): 30 March 2015 12:24:55
Eccentricity: 0.0015458
inclination: 71.0385°
perigee height: 834 km
apogee height: 856 km
right ascension of ascending node: 109.1564°
argument of perigee: 189.7686°
revolutions per day: 14.14141694
mean anomaly at epoch: 170.3138°
orbit number at epoch: 28272

The dashed part of the orbit path shows where the satellite is in the earth's shadow,  

DLR